Thunder radar more information blitzortung!


Radar de pluja more information rain snow radar


Visita la nostra xarxa de llocs de meteo:

Template documentation
and downloads

And another site



No particular awareness of the weather is required.    There are no Weather-warnings

Pagina Historial Weather Underground text

Diari Resum Agost 20, 2018 Unitats:  Mètric    Imperial   Tant
« Previous Dia
SegĂźent Dia »
Diari Setmana Mensual Anual Personalitzada
  Actual: Maxima: Minima: Media:
Temperatura: -6.2 °C -17.8 °C -7.4 °C -6.6 °C
Punt de rosada: -9.2 °C -17.8 °C -10.4 °C -10.1 °C
Humitat: 71 % Humidity % 55 % 67 %
Wind Speed: 0 km/h 0 km/h 0 km/h 0 km/h
RĂ fegues de vent: 0 km/h 0 km/h - -
Vent:Calm - - WSW
Pression baro: 34466.1 hPa 0 hPa 34432.2 hPa -
Precipitacions: 0 mm      
Historical Graphs
 
 
Dades de taula per Agost 20, 2018
Temps Temperatura Punt de rosada Pression baro Vent Wind Speed RĂ fegues de vent Humitat Rainfall Rate (Hourly)
-17.8 °C -17.8 °C 0 hPa Calm     Humidity % 0 mm
00:04 -4.8 °C -10.1 °C 34466.1 hPa Calm     55 % 0 mm
00:09 -4.8 °C -9.9 °C 34466.1 hPa Calm     56 % 0 mm
00:14 -4.8 °C -9.9 °C 34466.1 hPa Calm     56 % 0 mm
00:19 -4.9 °C -10.1 °C 34466.1 hPa Calm     56 % 0 mm
00:24 -4.8 °C -9.9 °C 34466.1 hPa Calm     56 % 0 mm
00:29 -4.8 °C -9.9 °C 34466.1 hPa Calm     56 % 0 mm
00:34 -4.8 °C -10.1 °C 34466.1 hPa Calm     55 % 0 mm
00:39 -4.9 °C -10.1 °C 34466.1 hPa Calm     56 % 0 mm
00:44 -5 °C -10.2 °C 34466.1 hPa Calm     56 % 0 mm
00:49 -5.1 °C -10.1 °C 34466.1 hPa Calm     57 % 0 mm
00:54 -5.1 °C -10.1 °C 34466.1 hPa Calm     57 % 0 mm
00:59 -5.1 °C -10.1 °C 34466.1 hPa Calm     57 % 0 mm
01:04 -5.1 °C -10.1 °C 34466.1 hPa Calm     57 % 0 mm
01:09 -5.1 °C -10.1 °C 34466.1 hPa Calm     57 % 0 mm
01:14 -4.9 °C -10.1 °C 34466.1 hPa Calm     56 % 0 mm
01:19 -4.9 °C -9.9 °C 34466.1 hPa Calm     57 % 0 mm
01:24 -5 °C -10 °C 34466.1 hPa Calm     57 % 0 mm
01:27 -5 °C -10 °C 34466.1 hPa Calm     57 % 0 mm
01:34 -5.1 °C -9.9 °C 34466.1 hPa Calm     58 % 0 mm
01:39 -5.1 °C -9.9 °C 34466.1 hPa Calm     58 % 0 mm
01:44 -5.2 °C -10 °C 34466.1 hPa Calm     58 % 0 mm
01:48 -5.2 °C -10.1 °C 34466.1 hPa Calm     58 % 0 mm
01:54 -5.3 °C -10.1 °C 34466.1 hPa Calm     58 % 0 mm
01:59 -5.4 °C -10.1 °C 34466.1 hPa Calm     59 % 0 mm
02:04 -5.4 °C -10.1 °C 34466.1 hPa Calm     59 % 0 mm
02:08 -5.6 °C -9.9 °C 34466.1 hPa Calm     61 % 0 mm
02:14 -5.8 °C -10.1 °C 34466.1 hPa Calm     62 % 0 mm
02:19 -5.9 °C -10.2 °C 34466.1 hPa Calm     62 % 0 mm
02:24 -6 °C -10.1 °C 34466.1 hPa Calm     63 % 0 mm
02:29 -6.1 °C -10.2 °C 34466.1 hPa Calm     63 % 0 mm
02:32 -6.2 °C -10.3 °C 34466.1 hPa Calm     63 % 0 mm
02:39 -6.3 °C -10.2 °C 34466.1 hPa Calm     64 % 0 mm
02:43 -6.3 °C -10.2 °C 34466.1 hPa Calm     64 % 0 mm
02:49 -6.4 °C -10.2 °C 34466.1 hPa Calm     65 % 0 mm
02:54 -6.4 °C -10.1 °C 34466.1 hPa Calm     66 % 0 mm
02:59 -6.4 °C -10.2 °C 34466.1 hPa Calm     65 % 0 mm
03:04 -6.4 °C -10.2 °C 34466.1 hPa Calm     65 % 0 mm
03:09 -6.5 °C -10.3 °C 34466.1 hPa Calm     65 % 0 mm
03:14 -6.6 °C -10.3 °C 34466.1 hPa WSW 2.3 km/h   65 % 0 mm
03:19 -6.7 °C -10.4 °C 34466.1 hPa WSW 3.1 km/h   65 % 0 mm
03:24 -6.7 °C -10.3 °C 34432.2 hPa Calm     66 % 0 mm
03:29 -6.7 °C -10.2 °C 34432.2 hPa Calm     67 % 0 mm
03:34 -6.8 °C -10.2 °C 34432.2 hPa Calm     68 % 0 mm
03:39 -6.8 °C -10.2 °C 34432.2 hPa Calm     68 % 0 mm
03:44 -6.8 °C -10.1 °C 34432.2 hPa Calm     69 % 0 mm
03:49 -6.8 °C -10.1 °C 34432.2 hPa Calm     69 % 0 mm
03:54 -6.8 °C -10.1 °C 34432.2 hPa Calm     69 % 0 mm
03:59 -6.8 °C -10.1 °C 34432.2 hPa Calm     69 % 0 mm
04:04 -6.8 °C -10.1 °C 34432.2 hPa Calm     69 % 0 mm
04:09 -6.8 °C -10.1 °C 34432.2 hPa Calm     69 % 0 mm
04:14 -6.8 °C -9.9 °C 34432.2 hPa Calm     70 % 0 mm
04:19 -6.8 °C -9.9 °C 34432.2 hPa Calm     70 % 0 mm
04:24 -6.8 °C -10.1 °C 34432.2 hPa Calm     69 % 0 mm
04:29 -6.8 °C -9.9 °C 34432.2 hPa Calm     70 % 0 mm
04:34 -6.9 °C -10 °C 34432.2 hPa Calm     70 % 0 mm
04:39 -7 °C -10.1 °C 34466.1 hPa Calm     70 % 0 mm
04:44 -7.1 °C -10.2 °C 34466.1 hPa Calm     70 % 0 mm
04:49 -7.1 °C -10.2 °C 34466.1 hPa Calm     70 % 0 mm
04:54 -7.1 °C -10.2 °C 34466.1 hPa Calm     70 % 0 mm
04:59 -7.1 °C -10.2 °C 34466.1 hPa Calm     70 % 0 mm
05:04 -7.1 °C -10.1 °C 34466.1 hPa Calm     71 % 0 mm
05:09 -7.1 °C -10.1 °C 34466.1 hPa Calm     71 % 0 mm
05:14 -7.1 °C -10.1 °C 34466.1 hPa Calm     71 % 0 mm
05:19 -7.1 °C -9.9 °C 34466.1 hPa Calm     72 % 0 mm
05:24 -7.1 °C -9.9 °C 34466.1 hPa Calm     72 % 0 mm
05:29 -7.2 °C -10.1 °C 34466.1 hPa Calm     72 % 0 mm
05:34 -7.1 °C -9.9 °C 34466.1 hPa Calm     72 % 0 mm
05:39 -7.1 °C -9.9 °C 34466.1 hPa Calm     73 % 0 mm
05:44 -7.2 °C -9.9 °C 34466.1 hPa Calm     73 % 0 mm
05:49 -7.2 °C -9.9 °C 34466.1 hPa Calm     73 % 0 mm
05:54 -7.2 °C -9.9 °C 34466.1 hPa Calm     73 % 0 mm
05:59 -7.2 °C -9.9 °C 34466.1 hPa Calm     73 % 0 mm
06:04 -7.3 °C -9.9 °C 34466.1 hPa Calm     74 % 0 mm
06:09 -7.3 °C -9.9 °C 34432.2 hPa Calm     74 % 0 mm
06:14 -7.4 °C -10.1 °C 34432.2 hPa Calm     74 % 0 mm
06:19 -7.4 °C -10.1 °C 34432.2 hPa Calm     74 % 0 mm
06:24 -7.3 °C -9.9 °C 34432.2 hPa Calm     74 % 0 mm
06:29 -7.3 °C -9.8 °C 34432.2 hPa Calm     75 % 0 mm
06:34 -7.3 °C -9.8 °C 34432.2 hPa Calm     75 % 0 mm
06:39 -7.3 °C -9.8 °C 34466.1 hPa Calm     75 % 0 mm
06:44 -7.3 °C -9.8 °C 34466.1 hPa Calm     75 % 0 mm
06:49 -7.3 °C -9.8 °C 34466.1 hPa Calm     75 % 0 mm
06:54 -7.4 °C -9.9 °C 34466.1 hPa Calm     75 % 0 mm
06:59 -7.3 °C -9.8 °C 34466.1 hPa Calm     75 % 0 mm
07:04 -7.2 °C -9.8 °C 34466.1 hPa Calm     75 % 0 mm
07:09 -7.2 °C -9.8 °C 34466.1 hPa Calm     74 % 0 mm
07:14 -7.2 °C -9.8 °C 34466.1 hPa Calm     74 % 0 mm
07:19 -7.2 °C -9.8 °C 34466.1 hPa Calm     74 % 0 mm
07:24 -7.2 °C -9.8 °C 34466.1 hPa Calm     74 % 0 mm
07:29 -7.3 °C -9.8 °C 34466.1 hPa Calm     75 % 0 mm
07:34 -7.4 °C -9.9 °C 34466.1 hPa Calm     75 % 0 mm
07:39 -7.3 °C -9.8 °C 34466.1 hPa Calm     75 % 0 mm
07:44 -7.4 °C -10.1 °C 34466.1 hPa Calm     74 % 0 mm
07:49 -7.4 °C -10.1 °C 34466.1 hPa Calm     74 % 0 mm
07:54 -7.3 °C -9.8 °C 34466.1 hPa Calm     75 % 0 mm
07:59 -7.2 °C -9.8 °C 34466.1 hPa Calm     74 % 0 mm
08:04 -7.1 °C -9.7 °C 34466.1 hPa Calm     74 % 0 mm
08:09 -6.8 °C -9.4 °C 34466.1 hPa Calm     74 % 0 mm
08:14 -6.4 °C -9.2 °C 34466.1 hPa Calm     73 % 0 mm
08:19 -6.3 °C -9.3 °C 34466.1 hPa Calm     71 % 0 mm
08:24 -6.2 °C -9.2 °C 34466.1 hPa Calm     71 % 0 mm
Meteo Sesrovires
Elogis d' Weather Underground - 2 mb

Guio original per  Jim McMurry - jmcmurry@mwt.net Adaptat per a la plantilla per  Wim van der Kuil - Leuven-Template.eu

Trobareu la nostra informacio del temps tambe a:

Weather Underground

AWEKAS